Temp
17 18 18 19 19 19 18 19 18 18 17 18 18 18 18 18 17 16 16 15 15 14 14 14 13 13 13 13 13 12 12 11
16 18 18 18 18 18 17 17 17 18 18 18 18 16 16 15 15 15 14 14 13 13 12 12 12 12 12 11 11 11 11 10
16 17 17 17 17 17 17 17 18 17 17 16 16 16 15 15 14 13 13 13 12 12 12 11 11 10 10 10 10 10 9 8
15 15 17 18 17 18 18 18 18 17 17 17 17 17 16 15 13 13 12 12 12 11 10 10 10 9 9 9 9 9 8 7
15 16 17 18 18 18 18 17 17 17 16 16 16 15 14 13 13 13 12 12 12 11 11 10 9 9 9 8 7 7 7 7
14 16 18 18 18 18 17 17 17 16 16 15 15 14 13 12 11 11 11 10 9 9 9 8 8 7 7 7 6 6 5 5
15 17 17 18 17 17 17 16 16 16 15 15 14 13 12 12 10 10 9 9 8 8 8 7 7 7 6 5 5 4 4 4
14 15 16 16 17 17 17 16 15 14 14 13 13 12 11 11 10 9 9 8 7 7 7 6 6 6 5 5 5 4 4 3
14 15 15 16 16 16 16 15 14 13 13 12 11 11 10 10 9 8 7 7 6 6 6 6 5 5 4 4 4 3 3 3
13 15 15 16 16 15 15 14 13 12 12 11 11 10 10 10 9 8 7 7 7 6 5 5 5 4 4 4 3 3 3 3
13 14 15 14 14 14 14 14 12 11 11 11 11 11 10 9 9 8 8 7 7 6 5 5 5 4 4 4 4 3 3 3
12 12 13 14 14 14 14 12 12 12 11 11 11 10 10 9 9 9 8 7 7 6 5 5 5 4 4 3 3 3 2 2
11 12 12 13 13 13 12 12 12 11 11 11 11 10 9 9 9 8 8 7 6 5 5 4 4 4 3 3 3 2 1 1
10 11 11 12 12 12 12 12 12 12 12 11 10 10 9 9 8 8 6 6 5 4 4 4 4 3 3 2 2 1 1 -0
10 10 11 12 12 12 12 12 11 10 10 10 10 10 8 8 7 6 5 4 1 3 4 4 3 3 3 2 1 0 -1 -1
10 10 10 11 12 12 11 10 10 10 9 9 8 7 7 7 6 5 4 2 2 1 3 3 3 2 2 1 0 -1 -2 -2
9 10 11 11 11 10 10 9 9 9 8 7 6 6 6 5 5 4 3 1 0 2 3 3 2 1 0 -1 -1 -2 -3 -3
9 10 10 9 9 9 9 9 9 8 7 6 5 5 5 4 4 3 3 1 1 1 1 2 0 -1 -1 -2 -3 -3 -4 -4
9 9 9 9 9 9 9 8 8 7 6 5 4 4 4 3 3 3 2 1 0 -1 0 0 -1 -2 -2 -3 -4 -4 -5 -5
Height
823 821 821 822 825 830 833 836 838 841 842 844 846 848 848 848 848 848 850 849 848 847 846 844 841 838 836 835 833 831 828 825
827 827 829 834 836 837 841 845 845 844 845 847 848 848 848 849 850 850 850 848 847 846 845 843 840 838 837 835 831 828 825 822
833 833 835 839 842 846 846 848 848 848 848 849 849 849 850 851 851 850 849 848 847 846 843 841 839 837 834 831 828 827 825 822
834 835 836 838 841 843 844 844 845 847 848 848 848 849 849 849 849 848 848 847 846 844 842 840 838 835 831 828 827 825 824 823
834 836 837 838 839 840 841 843 845 846 846 846 846 847 848 848 847 847 846 844 842 840 838 837 834 832 830 827 826 825 824 822
834 835 836 838 840 840 841 841 842 843 844 844 844 845 846 846 846 844 843 842 840 836 835 833 832 830 829 828 826 824 824 824
835 836 837 839 841 842 842 842 843 843 842 842 842 842 843 844 844 844 842 840 838 834 833 832 831 830 828 826 825 824 822 822
837 837 839 840 842 842 843 843 843 844 843 843 843 843 844 844 843 842 841 839 837 835 833 831 830 828 827 825 823 822 820 818
838 840 841 843 843 843 843 843 842 842 842 842 843 843 843 843 841 839 838 836 834 833 831 829 828 826 825 823 821 820 818 816
842 843 844 846 846 846 845 844 843 843 842 843 843 842 841 839 838 836 834 833 830 828 827 825 823 822 821 820 818 816 815 813
845 846 846 847 847 847 845 844 844 844 843 842 841 839 838 836 834 832 829 827 825 824 823 822 821 819 818 816 814 813 811 810
849 849 848 847 846 845 844 844 844 843 841 840 838 837 834 833 831 828 826 823 820 819 820 818 815 815 813 812 810 809 808 806
851 849 848 847 846 844 844 844 843 842 841 838 836 833 831 829 825 823 822 820 817 816 814 816 813 811 811 810 807 805 804 803
849 847 847 845 845 845 844 843 841 840 837 834 833 832 829 825 822 818 818 817 816 817 813 812 811 808 807 806 804 802 801 800
850 848 846 845 844 843 842 841 840 838 835 834 832 829 827 825 823 819 818 817 818 814 808 808 807 806 806 803 801 799 798 797
849 847 846 844 842 841 840 839 837 835 833 831 828 827 824 820 818 817 814 812 810 808 808 806 804 803 803 800 798 796 794 792
849 847 844 842 841 841 840 838 835 833 831 828 827 824 820 817 815 813 809 808 807 807 807 802 801 801 801 798 795 793 790 788
847 844 843 842 841 841 840 838 835 832 830 827 824 822 818 815 812 808 803 802 802 804 803 800 799 800 799 796 792 789 787 784
845 844 844 842 841 840 839 836 832 829 827 825 822 819 816 811 808 804 801 800 798 800 801 799 799 798 796 793 789 787 784 781
Wind_Speed
22 33 34 30 24 20 14 10 8 9 9 7 5 6 15 13 12 9 6 7 7 8 10 12 14 15 15 17 20 21 23 25
26 34 35 36 32 28 24 22 15 13 12 9 11 17 19 17 15 13 11 10 10 11 13 14 16 17 16 16 18 22 22 23
19 27 28 28 26 25 23 20 18 17 16 15 14 12 12 14 13 11 10 10 11 12 15 18 19 19 19 18 20 18 12 14
9 19 23 22 21 18 16 16 15 13 12 10 10 10 10 11 12 9 9 9 11 15 19 22 22 20 19 19 17 14 10 7
11 17 18 17 14 13 12 9 10 8 8 9 8 5 3 2 3 5 7 10 14 18 22 26 22 21 19 14 9 9 8 5
9 16 17 14 11 11 11 11 7 5 4 4 3 4 4 5 2 4 9 13 17 19 19 17 16 14 12 9 7 4 6 6
11 14 14 12 9 8 7 8 10 6 5 5 6 6 6 3 6 11 15 16 17 17 16 15 16 17 11 7 6 7 9 14
7 10 11 8 6 5 6 6 9 9 6 5 4 5 3 4 8 9 9 10 11 11 11 12 13 13 10 9 11 17 13 12
5 3 5 8 7 6 5 8 9 7 7 8 7 7 7 7 3 2 2 5 7 11 13 11 11 9 10 10 12 12 18 15
8 15 14 11 8 5 4 5 7 7 8 6 5 3 2 3 4 2 2 7 12 9 8 11 12 10 11 13 14 15 13 13
7 10 10 11 10 8 5 6 9 8 5 3 5 6 5 5 6 9 10 8 10 8 9 10 11 11 12 12 13 13 13 15
7 14 16 14 10 8 2 7 4 2 3 5 8 10 11 11 14 17 16 11 10 7 9 8 7 8 9 12 13 14 13 10
9 12 12 12 11 11 4 1 2 3 7 11 14 13 13 17 21 21 19 14 11 8 7 7 6 7 9 10 10 8 4 7
7 13 13 12 11 9 4 4 4 11 19 18 12 15 20 23 24 22 15 12 10 10 7 8 6 6 8 8 4 6 8 9
2 5 10 11 11 7 9 10 13 18 18 10 18 25 22 24 26 16 11 10 9 19 9 7 8 8 10 6 8 9 11 16
5 5 8 12 7 8 8 9 14 15 15 13 13 15 19 17 14 13 18 19 14 14 10 8 9 9 9 7 9 14 19 19
5 7 10 14 10 10 11 14 15 15 12 10 11 14 15 11 14 14 13 14 14 13 11 8 9 5 8 9 16 20 19 18
6 8 13 15 14 13 11 11 14 13 8 10 13 15 15 18 19 18 18 13 10 10 11 5 2 6 9 14 16 17 17 17
8 11 13 14 13 13 13 14 12 7 9 9 12 15 19 23 22 23 16 5 2 6 2 2 5 10 12 13 15 13 14 16
Wind_Direction
70 82 87 101 125 148 148 146 167 179 143 121 133 95 71 75 85 74 70 52 33 13 3 352 347 348 347 338 333 332 331 329
72 87 95 97 100 104 99 104 103 119 114 103 87 63 78 79 68 58 46 35 36 32 27 16 7 1 350 341 337 332 334 331
76 86 91 94 97 101 100 100 98 95 93 81 72 88 64 56 55 53 48 39 28 14 7 2 352 345 339 336 332 334 328 341
92 82 81 83 85 88 83 72 74 65 48 39 27 7 359 7 30 31 32 14 4 1 359 352 343 337 336 335 331 323 316 334
115 103 93 89 84 78 68 77 80 67 48 34 33 40 27 49 308 332 341 341 341 343 340 339 343 346 345 345 336 334 330 331
131 129 131 128 121 111 99 97 90 82 65 73 106 111 115 135 95 7 357 353 353 351 352 358 359 357 352 343 341 9 13 357
132 139 140 145 141 132 125 97 92 84 74 69 76 88 101 64 16 5 359 357 0 3 3 352 344 342 343 351 1 5 0 339
155 154 172 169 165 148 108 94 91 92 90 81 83 93 68 26 358 352 355 356 359 354 344 345 344 340 334 324 321 323 330 330
141 148 144 135 119 103 92 95 104 103 92 92 80 71 33 12 17 336 37 45 10 342 335 342 340 326 320 319 323 320 323 314
96 101 104 108 107 90 73 99 123 123 116 98 69 46 360 291 279 251 319 327 326 324 327 335 338 328 317 311 313 316 318 314
102 100 80 65 68 66 79 139 138 126 99 26 324 307 291 270 253 274 284 311 341 328 312 324 330 323 318 316 314 314 314 312
74 72 59 47 36 23 64 139 141 170 301 309 305 300 289 286 288 287 283 289 308 290 293 295 316 319 323 315 312 311 305 304
74 56 42 33 25 18 108 184 238 306 311 297 286 282 287 291 285 281 274 274 290 256 267 285 310 328 332 325 316 309 335 339
42 31 17 10 0 349 347 328 277 313 312 296 282 302 297 296 288 277 260 274 267 289 273 281 308 323 319 312 305 307 311 319
60 20 8 354 353 9 349 340 323 331 340 308 323 326 324 316 304 267 276 287 311 284 257 273 307 304 306 283 302 314 323 323
6 338 325 339 329 328 352 35 16 10 2 348 352 341 344 336 307 274 281 279 278 284 260 297 303 296 281 299 322 327 325 323
332 308 337 338 329 4 25 20 17 5 360 7 350 355 356 336 315 295 265 286 307 271 275 293 299 265 309 328 329 327 322 321
295 324 357 31 48 29 21 6 353 348 2 7 359 352 341 334 324 305 296 279 292 291 326 324 345 343 334 331 326 322 319 317
348 34 40 33 32 15 356 343 340 3 6 3 356 349 339 338 331 310 291 217 168 353 222 21 357 351 336 336 333 326 320 319